[[{"header":{"parameterUnit":"m.s-1","parameterCategory":1,"la1":30.2991,"la2":30.254,"lo1":-89.0895,"lo2":-89.0444,"dy":0.0017,"dx":0.0017,"nx":28,"ny":28,"refTime":"2024-12-24T03:00:00:Z","depth":0,"parameterNumber":2,"parameterNumberName":"U-component_of_WINDS"},"data":[0,0,0,0,0,0,0,0,0,0,0,0,0,0,0,0,0,0,0,0,0,0,0,0,0,0,0,0,0,0,0,0,0,0,0,0,0,0,0,0,0,0,0,0,0,0,0,0,0,0,0,0,0,0,0,0,0,0,-4.344,-4.344,0,-4.3443,-4.3443,-4.3443,-4.3283,-4.3278,-4.3274,-4.327,-4.3275,-4.3279,-4.3283,0,0,0,0,0,0,0,0,0,0,0,0,0,-4.3296,-4.3299,-4.344,-4.344,-4.344,-4.3443,-4.3443,-4.3443,-4.3283,-4.3278,-4.3273,-4.3268,-4.3274,-4.3279,-4.3284,0,0,0,0,0,0,0,0,0,0,0,0,0,-4.3335,-4.3301,-4.344,-4.336,-4.3353,-4.3443,-4.3443,-4.3443,-4.3284,-4.3278,-4.3272,-4.3266,-4.3272,-4.3278,-4.3284,-4.3451,0,0,-4.3303,-4.3306,0,0,0,0,0,0,0,0,-4.3333,-4.334,-4.3372,-4.3366,-4.3358,-4.3356,-4.3394,-4.3446,-4.3286,-4.3311,-4.327,-4.3263,-4.3307,-4.331,-4.3325,-4.3451,-4.3451,-4.3304,-4.3307,-4.331,-4.3312,0,0,0,0,0,0,0,-4.3331,-4.3339,-4.3441,-4.3373,-4.3364,-4.3325,-4.3324,-4.3403,-4.3345,-4.3308,-4.3296,-4.3299,-4.3302,-4.3319,-4.3324,-4.3451,-4.3304,-4.3309,-4.3313,-4.3315,-4.3716,-4.3723,0,0,0,0,0,0,-4.3338,-4.3338,-4.3441,-4.3441,-4.3329,-4.3333,-4.3331,-4.3363,-4.3344,-4.3334,-4.3304,-4.3291,-4.3312,-4.3317,-4.3324,-4.3518,-4.331,-4.3316,-4.3319,-4.3709,-4.3718,-4.3725,0,0,0,0,0,0,-4.3336,-4.3349,-4.3441,-4.3387,-4.3395,-4.3342,-4.3379,-4.3367,-4.3383,-4.3341,-4.333,-4.3333,-4.3307,-4.3315,-4.3421,-4.3516,-4.3319,-4.3324,-4.3701,-4.3712,-4.3721,-4.3908,0,0,0,0,0,0,-4.3333,-4.3349,-4.3411,-4.3389,-4.3399,-4.3538,-4.3385,-4.3371,-4.3394,-4.3377,-4.3364,-4.3356,-4.3303,-4.3412,-4.3427,-4.3521,-4.3329,-4.3692,-4.3706,-4.3718,-4.3893,-4.3924,-4.395,0,0,0,0,0,-4.3328,-4.3464,-4.3415,-4.3428,-4.3475,-4.3543,-4.3549,-4.3484,-4.3403,-4.3465,-4.3438,-4.3356,-4.3504,-4.3425,-4.3439,-4.3537,-4.3686,-4.3702,-4.3717,-4.3881,-4.3918,-4.3949,0,0,0,0,0,0,-4.3498,-4.3459,-4.3405,-4.3537,-4.3545,-4.3516,-4.3592,-4.3526,-4.3557,-4.354,-4.3459,-4.3457,-4.3577,-4.3567,-4.348,-4.3698,-4.358,-4.36,-4.37,-4.3735,-4.3762,-4.3762,-4.3334,0,0,0,0,0,-4.3551,-4.3609,-4.3572,-4.3693,-4.3699,-4.3646,-4.3673,-4.3623,-4.3628,-4.363,-4.3611,-4.3619,-4.3667,-4.37,-4.3742,-4.3892,-4.3887,-4.3966,-4.3994,-4.4018,-4.4035,-4.4115,-4.415,-4.3776,-4.3776,-4.3776,0,0,-4.3661,-4.3647,-4.3688,-4.3726,-4.3726,-4.3789,-4.365,-4.3721,-4.3768,-4.3641,-4.374,-4.3727,-4.373,-4.386,-4.3915,-4.3855,-4.4138,-4.4038,-4.4057,-4.4061,-4.4135,-4.4171,-4.4202,-4.3787,-4.3785,-4.3783,0,0,-4.3893,-4.3888,-4.3988,-4.3991,-4.3993,-4.3957,-4.3982,-4.3964,-4.395,-4.4048,-4.3955,-4.4009,-4.4093,-4.41,-4.4115,-4.4353,-4.428,-4.4369,-4.4517,-4.4596,-4.4625,-4.4651,-4.4737,-4.4768,-4.4387,-4.4388,-4.4388,0,-4.4029,-4.4119,-4.4048,-4.4127,-4.4147,-4.4036,-4.4138,-4.4145,-4.4161,-4.4178,-4.411,-4.4215,-4.421,-4.4339,-4.4398,-4.4413,-4.4439,-4.437,-4.4627,-4.4652,-4.4675,-4.4755,-4.4788,-4.4398,-4.4397,-4.4396,-4.4395,0,-4.4287,-4.4352,-4.4432,-4.4451,-4.448,-4.4571,-4.4514,-4.4553,-4.4501,-4.4473,-4.4576,-4.4566,-4.4604,-4.4631,-4.4581,-4.4755,-4.4718,-4.464,-4.452,-4.4722,-4.4797,-4.4827,-4.4414,-4.441,-4.4407,-4.4404,0,0,-4.4624,-4.4604,-4.4635,-4.4643,-4.4638,-4.4687,-4.4773,-4.4811,-4.4846,-4.4862,-4.4932,-4.5007,-4.4936,-4.4953,-4.4903,-4.4972,-4.5163,-4.4886,-4.4884,-4.4938,-4.5355,-4.5414,-4.5451,-4.5115,-4.512,-4.5125,-4.5355,0,-4.4849,-4.4994,-4.4934,-4.5085,-4.5145,-4.5042,-4.5117,-4.5123,-4.51,-4.5147,-4.5121,-4.5176,-4.5077,-4.5087,-4.5151,-4.5126,-4.5246,-4.5109,-4.518,-4.5184,-4.5182,-4.549,-4.5552,-4.5769,-4.5384,-4.5389,-4.5392,0,-4.5131,-4.5159,-4.5316,-4.5303,-4.5326,-4.5394,-4.5425,-4.5472,-4.5477,-4.5456,-4.5476,-4.5412,-4.5496,-4.5378,-4.5494,-4.5402,-4.5428,-4.5421,-4.5428,-4.5432,-4.53,-4.5503,-4.5837,-4.587,-4.5437,-4.5434,-4.5431,0,-4.5362,-4.5439,-4.5543,-4.5553,-4.554,-4.5591,-4.5588,-4.5587,-4.5614,-4.5642,-4.5659,-4.5697,-4.5717,-4.5748,-4.5696,-4.5614,-4.582,-4.5697,-4.5805,-4.5807,-4.5852,-4.585,-4.6196,-4.587,-4.5869,-4.5869,-4.5868,0,-4.562,-4.572,-4.5647,-4.5711,-4.5821,-4.5752,-4.5863,-4.5849,-4.585,-4.591,-4.5824,-4.5882,-4.581,-4.5862,-4.5822,-4.5925,-4.5935,-4.592,-4.5908,-4.5928,-4.593,-4.5944,-4.5927,-4.5877,-4.5875,-4.5874,-4.5872,0,-4.5895,-4.585,-4.5957,-4.5937,-4.5934,-4.6017,-4.5999,-4.6059,-4.603,-4.6108,-4.6122,-4.6078,-4.6135,-4.6086,-4.6142,-4.6115,-4.6252,-4.6218,-4.625,-4.6241,-4.6352,-4.6343,-4.6719,-4.6765,-4.641,-4.6413,-4.6416,0,-4.6062,-4.6137,-4.6126,-4.616,-4.6163,-4.6219,-4.6247,-4.6183,-4.6216,-4.6229,-4.6288,-4.6338,-4.6374,-4.6471,-4.6444,-4.6486,-4.6453,-4.6582,-4.6459,-4.6477,-4.6456,-4.6452,-4.6459,-4.6607,-4.6611,-4.6615,-4.6618,0,-4.6364,-4.6339,-4.6382,-4.6419,-4.6455,-4.6481,-4.65,-4.6533,-4.6468,-4.6509,-4.6567,-4.6596,-4.6653,-4.6704,-4.6738,-4.6735,-4.6667,-4.6657,-4.6684,-4.6705,-4.672,-4.6714,-4.6319,-4.6648,-4.6645,-4.6643,-4.6641,-4.664,-4.659,-4.6653,-4.6655,-4.6707,-4.6715,-4.6736,-4.6791,-4.677,-4.6817,-4.6858,-4.6818,-4.6889,-4.6894,-4.6933,-4.6939,-4.6994,-4.694,-4.698,-4.699,-4.7001,-4.7017,-4.6713,-4.7,-4.6999,-4.6998,-4.6997,-4.6997,0,-4.6888,-4.6885,-4.6933,-4.6963,-4.7005,-4.6937,-4.6955,-4.6995,-4.7058,-4.7069,-4.7107,-4.7175,-4.7225,-4.7203,-4.7247,-4.7296,-4.7265,-4.7309,-4.7305,-4.7306,-4.7062,-4.7034,-4.7333,-4.7333,-4.7333,-4.7333,-4.7333,-4.7333,-4.7047,-4.715,-4.7126,-4.7232,-4.7228,-4.7297,-4.7313,-4.7332,-4.7341,-4.7421,-4.7462,-4.7447,-4.7446,-4.749,-4.7533,-4.7525,-4.7546,-4.7602,-4.7583,-4.7356,-4.7323,-4.7291,-4.7264,-4.7607,-4.7607,-4.7822,-4.7824,-4.7825]},{"header":{"parameterUnit":"m.s-1","parameterCategory":1,"la1":30.2991,"la2":30.254,"lo1":-89.0895,"lo2":-89.0444,"dy":0.0017,"dx":0.0017,"nx":28,"ny":28,"refTime":"2024-12-24T03:00:00:Z","depth":0,"parameterNumber":3,"parameterNumberName":"V-component_of_WINDS"},"data":[0,0,0,0,0,0,0,0,0,0,0,0,0,0,0,0,0,0,0,0,0,0,0,0,0,0,0,0,0,0,0,0,0,0,0,0,0,0,0,0,0,0,0,0,0,0,0,0,0,0,0,0,0,0,0,0,0,0,-0.0572,-0.0572,0,-0.0573,-0.0573,-0.0573,-0.0563,-0.0563,-0.0563,-0.0563,-0.0565,-0.0566,-0.0566,0,0,0,0,0,0,0,0,0,0,0,0,0,-0.0563,-0.0563,-0.0572,-0.0572,-0.0572,-0.0573,-0.0573,-0.0573,-0.0564,-0.0563,-0.0563,-0.0563,-0.0565,-0.0566,-0.0566,0,0,0,0,0,0,0,0,0,0,0,0,0,-0.0566,-0.0563,-0.0572,-0.0567,-0.0567,-0.0573,-0.0573,-0.0573,-0.0564,-0.0563,-0.0563,-0.0562,-0.0565,-0.0565,-0.0566,-0.0577,0,0,-0.0567,-0.0568,0,0,0,0,0,0,0,0,-0.0565,-0.0566,-0.0568,-0.0568,-0.0567,-0.0568,-0.057,-0.0574,-0.0564,-0.0565,-0.0563,-0.0562,-0.0566,-0.0567,-0.0568,-0.0577,-0.0577,-0.0567,-0.0568,-0.0568,-0.0568,0,0,0,0,0,0,0,-0.0565,-0.0566,-0.0572,-0.0568,-0.0568,-0.0565,-0.0565,-0.0571,-0.0568,-0.0565,-0.0564,-0.0564,-0.0566,-0.0567,-0.0568,-0.0577,-0.0567,-0.0568,-0.0568,-0.0568,-0.0593,-0.0593,0,0,0,0,0,0,-0.0566,-0.0566,-0.0572,-0.0572,-0.0565,-0.0566,-0.0566,-0.0568,-0.0568,-0.0567,-0.0565,-0.0564,-0.0567,-0.0567,-0.0568,-0.058,-0.0568,-0.0568,-0.0569,-0.0592,-0.0593,-0.0593,0,0,0,0,0,0,-0.0565,-0.0566,-0.0572,-0.0569,-0.0569,-0.0566,-0.0569,-0.0568,-0.0569,-0.0568,-0.0567,-0.0566,-0.0567,-0.0567,-0.0574,-0.058,-0.0569,-0.0569,-0.0592,-0.0593,-0.0593,-0.0604,0,0,0,0,0,0,-0.0565,-0.0566,-0.057,-0.0569,-0.057,-0.0578,-0.0569,-0.0568,-0.057,-0.0569,-0.0569,-0.0569,-0.0566,-0.0573,-0.0574,-0.058,-0.0569,-0.0592,-0.0592,-0.0593,-0.0603,-0.0604,-0.0606,0,0,0,0,0,-0.0565,-0.0574,-0.0571,-0.0572,-0.0575,-0.0579,-0.0579,-0.0576,-0.057,-0.0575,-0.0573,-0.0569,-0.0578,-0.0574,-0.0575,-0.0581,-0.0591,-0.0592,-0.0593,-0.0602,-0.0604,-0.0606,0,0,0,0,0,0,-0.0577,-0.0574,-0.057,-0.0579,-0.0579,-0.0577,-0.0582,-0.0578,-0.058,-0.0579,-0.0575,-0.0575,-0.0582,-0.0582,-0.0577,-0.0591,-0.0584,-0.0585,-0.0591,-0.0593,-0.0594,-0.0594,-0.057,0,0,0,0,0,-0.0581,-0.0584,-0.0581,-0.0589,-0.0589,-0.0586,-0.0587,-0.0584,-0.0585,-0.0585,-0.0584,-0.0585,-0.0588,-0.059,-0.0593,-0.0602,-0.0602,-0.0607,-0.0608,-0.0609,-0.0611,-0.0615,-0.0617,-0.0596,-0.0596,-0.0596,0,0,-0.0589,-0.0587,-0.059,-0.0592,-0.0591,-0.0595,-0.0586,-0.0591,-0.0593,-0.0586,-0.0592,-0.0591,-0.0591,-0.0599,-0.0603,-0.0599,-0.0616,-0.0611,-0.0612,-0.0612,-0.0616,-0.0618,-0.062,-0.0597,-0.0597,-0.0597,0,0,-0.0605,-0.0604,-0.061,-0.061,-0.0609,-0.0606,-0.0607,-0.0606,-0.0605,-0.061,-0.0604,-0.0607,-0.0613,-0.0613,-0.0614,-0.0628,-0.0624,-0.0629,-0.0637,-0.0641,-0.0643,-0.0644,-0.0649,-0.0651,-0.063,-0.063,-0.063,0,-0.0615,-0.062,-0.0614,-0.0619,-0.0619,-0.0611,-0.0617,-0.0617,-0.0618,-0.0618,-0.0614,-0.062,-0.062,-0.0627,-0.063,-0.0631,-0.0632,-0.0629,-0.0643,-0.0644,-0.0646,-0.065,-0.0652,-0.063,-0.063,-0.063,-0.063,0,-0.0632,-0.0636,-0.0641,-0.064,-0.0641,-0.0646,-0.0641,-0.0643,-0.0639,-0.0636,-0.0642,-0.0641,-0.0643,-0.0644,-0.0641,-0.065,-0.0648,-0.0644,-0.0637,-0.0648,-0.0652,-0.0654,-0.0631,-0.0631,-0.0631,-0.0631,0,0,-0.0659,-0.0653,-0.0655,-0.0654,-0.0651,-0.0654,-0.0658,-0.0659,-0.066,-0.066,-0.0664,-0.0667,-0.0662,-0.0663,-0.066,-0.0663,-0.0673,-0.0658,-0.0658,-0.0661,-0.0683,-0.0687,-0.0689,-0.067,-0.067,-0.0671,-0.0683,0,-0.0674,-0.0681,-0.0675,-0.0683,-0.0685,-0.0677,-0.068,-0.0679,-0.0676,-0.0678,-0.0675,-0.0677,-0.0671,-0.0671,-0.0674,-0.0671,-0.0678,-0.067,-0.0674,-0.0674,-0.0674,-0.0691,-0.0696,-0.0708,-0.0685,-0.0685,-0.0685,0,-0.0694,-0.0693,-0.0701,-0.0697,-0.0697,-0.0701,-0.07,-0.0702,-0.07,-0.0697,-0.0697,-0.0692,-0.0696,-0.0688,-0.0693,-0.0688,-0.0689,-0.0687,-0.0688,-0.0689,-0.0681,-0.0693,-0.0712,-0.0714,-0.0688,-0.0687,-0.0687,0,-0.0712,-0.0713,-0.0718,-0.0717,-0.0712,-0.0714,-0.0712,-0.071,-0.071,-0.0709,-0.071,-0.071,-0.071,-0.071,-0.0705,-0.07,-0.071,-0.0703,-0.0709,-0.0709,-0.0712,-0.0712,-0.0732,-0.0712,-0.0711,-0.0711,-0.0711,0,-0.073,-0.0736,-0.0726,-0.0729,-0.0734,-0.0726,-0.0732,-0.0729,-0.0726,-0.0728,-0.072,-0.0723,-0.0715,-0.0717,-0.0713,-0.0717,-0.0717,-0.0715,-0.0714,-0.0716,-0.0717,-0.0717,-0.0717,-0.0712,-0.0712,-0.0712,-0.0712,0,-0.0752,-0.0746,-0.075,-0.0744,-0.0742,-0.0746,-0.0741,-0.0744,-0.0739,-0.0742,-0.0742,-0.0736,-0.0737,-0.0731,-0.0731,-0.0728,-0.0735,-0.0732,-0.0735,-0.0735,-0.0741,-0.0741,-0.0762,-0.0765,-0.0743,-0.0743,-0.0743,0,-0.0765,-0.0769,-0.0762,-0.0762,-0.076,-0.0761,-0.0761,-0.0753,-0.0753,-0.075,-0.0753,-0.0752,-0.0752,-0.0754,-0.075,-0.0749,-0.0747,-0.0754,-0.0747,-0.0748,-0.0747,-0.0747,-0.0747,-0.0756,-0.0757,-0.0757,-0.0757,0,-0.0788,-0.0784,-0.0784,-0.0782,-0.0781,-0.078,-0.0778,-0.0778,-0.077,-0.077,-0.077,-0.077,-0.0769,-0.0769,-0.0768,-0.0766,-0.076,-0.0759,-0.076,-0.0763,-0.0765,-0.0764,-0.074,-0.0759,-0.0759,-0.0759,-0.0759,-0.0759,-0.0806,-0.0808,-0.0803,-0.0803,-0.08,-0.0798,-0.0799,-0.0794,-0.0794,-0.0792,-0.0787,-0.0788,-0.0785,-0.0782,-0.078,-0.0781,-0.0777,-0.0779,-0.078,-0.078,-0.0782,-0.0764,-0.078,-0.078,-0.078,-0.078,-0.078,0,-0.0828,-0.0824,-0.0824,-0.082,-0.082,-0.0813,-0.081,-0.081,-0.081,-0.0807,-0.0806,-0.0806,-0.0805,-0.08,-0.0798,-0.08,-0.0797,-0.08,-0.08,-0.08,-0.0785,-0.0784,-0.0802,-0.0802,-0.0802,-0.0802,-0.0802,-0.0802,-0.084,-0.0843,-0.0839,-0.084,-0.0836,-0.0836,-0.0835,-0.0832,-0.0829,-0.0829,-0.0828,-0.0824,-0.0819,-0.0817,-0.0816,-0.0815,-0.0815,-0.0819,-0.0816,-0.0803,-0.0801,-0.0799,-0.0798,-0.0819,-0.0819,-0.0831,-0.0831,-0.0831]}]]